Regional Weather Roundup
Issued by NWS Sterling, VA

Home | Current Version | Previous Version | Graphics & Text | Print | Product List | Glossary On
Versions: 1 2 3 4 5 6 7 8 9 10 11 12 13 14 15 16 17 18 19 20 21 22 23 24 25 26 27
000
ASUS41 KLWX 232311
RWRLWX

REGIONAL WEATHER ROUNDUP
NATIONAL WEATHER SERVICE BALTIMORE MD/WASHINGTON DC
700 PM EDT SAT JUL 23 2016

Note: "FAIR" indicates few or no clouds below 12,000 feet
with no significant weather and/or obstructions to visibility.
 TC=TEMPERATURE CELSIUS

 * =Non NWS site. Station does not report precipitation (e.g. rain,
    snow, etc.), thunder, or fog.

DCZ001-MDZ009-015-VAZ040>042-051-053>054-240000-
WASHINGTON METRO

CITY           SKY/WX    TMP DP  RH WIND       PRES   REMARKS
WASHINGTON NAT PTSUNNY   96  68  39 SW14      29.86S HX 101
DULLES         PTSUNNY   93  68  43 W8        29.88R HX  97
ANDREWS AFB    CLOUDY    92  69  46 SW13      29.87R HX  97
FT BELVOIR     FAIR      94  69  43 S3        29.86F HX 100
QUANTICO       FAIR      94  71  47 SW6       29.87F HX 101
COLLEGE PARK*  FAIR      93  70  46 CALM      29.86R HX  99
LEESBURG*      FAIR      95  73  49 SW3       29.89R HX 105
MANASSAS*      SUNNY     91  72  52 SW7       29.87F HX  98
GAITHERSBURG*  CLOUDY    90  72  55 NW3       29.93R HX  96

$$

MDZ006>007-011-014-240000-
BALTIMORE METRO

CITY           SKY/WX    TMP DP  RH WIND       PRES   REMARKS
BWI AIRPORT    PTSUNNY   94  70  45 W9        29.86R HX 100
MD SCIENCE CTR   N/A     96  70  42 MISG      29.86R HX 102
MARTIN STATE   PTSUNNY   93  73  52 W9        29.86R HX 102
ANNAPOLIS      CLOUDY    94  75  54 CALM      29.86R HX 105
FORT MEADE*    MOSUNNY   86  77  74 CALM      29.89R HX  97

$$

MDZ012-015-019>023-240000-
MARYLAND EASTERN SHORE

CITY           SKY/WX    TMP DP  RH WIND       PRES   REMARKS
OCEAN CITY     SUNNY     90  71  53 SW9       29.87S HX  96
SALISBURY      SUNNY     89  73  59 SW7       29.87F HX  97
BAY BRIDGE AP* CLOUDY    91  75  59 SW7       29.86R HX 102
CAMBRIDGE*     MOSUNNY   88  73  62 S3        29.87S HX  96
EASTON*        PTSUNNY   91  77  62 SW7       29.91R HX 105

$$

MDZ017>025-240000-
SOUTHERN MARYLAND

CITY           SKY/WX    TMP DP  RH WIND       PRES   REMARKS
PATUXENT RIVER SUNNY     95  70  44 W10       29.87S HX 101
ST INIGOES     SUNNY     93  74  53 W3        29.87S HX 103
LEONARDTOWN*   SUNNY     93  68  43 W8        29.89S HX  97

$$

MDZ003>005-240000-
NORTH CENTRAL MARYLAND

CITY           SKY/WX    TMP DP  RH WIND       PRES   REMARKS
FREDERICK*     PTSUNNY   90  72  55 CALM      29.91S HX  96
HAGERSTOWN APT CLOUDY    86  70  58 SW5       29.90R HX  90

$$

MDZ501>502-240000-
WESTERN MARYLAND

CITY           SKY/WX    TMP DP  RH WIND       PRES   REMARKS
OAKLAND*       CLOUDY    75  68  78 W6        30.09S
CUMBERLAND*    CLOUDY    90  68  48 NW7       29.96R HX  93

$$

VAZ025>031-240000-
SHENANDOAH VALLEY

CITY           SKY/WX    TMP DP  RH WIND       PRES   REMARKS
WINCHESTER*    FAIR      95  66  38 W8        29.90S HX  98
FRONT ROYAL*   MOCLDY    88  70  55 W6        29.90S HX  92
LURAY*         FAIR      91  70  49 SW7       29.91F HX  97
NEW MARKET*    FAIR     N/A N/A N/A SW3       29.89S
STAUNTON*      FAIR      90  69  50 SW7       29.96S HX  94
WAYNESBORO*    FAIR      90  64  41 SW10      29.96F HX  91

$$

WVZ021-048>050-054>055-240000-
EASTERN WEST VIRGINIA PANHANDLE

CITY           SKY/WX    TMP DP  RH WIND       PRES   REMARKS
MARTINSBURG    FAIR      94  68  42 NW13      29.89S HX  98
PETERSBURG*    FAIR      91  70  49 NW9G16    29.94R HX  97

$$

VAZ036>039-050-240000-
CENTRAL FOOTHILLS

CITY           SKY/WX    TMP DP  RH WIND       PRES   REMARKS
CHARLOTTESVILL FAIR      94  69  44 SW6       29.91S HX  99
CULPEPER*      FAIR      93  75  55 CALM      29.88F HX 104
ORANGE*          N/A     93  70  46 S5        29.91F HX  99
GORDONSVILLE*  FAIR      94  73  51 SW6       29.89F HX 102
WARRENTON*     FAIR      92  66  42 CALM      29.88S HX  95

$$

VAZ055>057-240000-
NORTH AND CENTRAL PIEDMONT

CITY           SKY/WX    TMP DP  RH WIND       PRES   REMARKS
FREDERICKSBRG*   N/A     94  74  51 SW6       29.87F HX 104
STAFFORD*      FAIR      92  70  48 SW6       29.92S HX  97

$$

NCZ024-NYZ072-PAZ021-071-VAZ022-071-240000-
OTHER REGIONAL OBSERVATIONS

CITY           SKY/WX    TMP DP  RH WIND       PRES   REMARKS
NEW YORK CITY  MOSUNNY   91  60  35 MISG      29.82R HX  90
PHILADELPHIA   CLOUDY    84  71  65 S6        29.86R
PITTSBURGH     CLOUDY    81  70  69 S3        29.97R
ROANOKE        FAIR      93  66  40 SE9       29.98F HX  96
RICHMOND       FAIR      92  72  51 SW12      29.89F HX  99
RALEIGH        MOSUNNY   92  74  55 S7        29.95S HX 101

$$

ANZ530>537-240000-
MARINE OBSERVATIONS

STATION/POSITION TIME  TEMP    WIND        PRES
                       AIR SEA DIR/SP/G
                 (UTC) (F)     (DEG/KT/KT) (MB)
THOMAS PT LIGHT  2300   91 83  230/  7/  8 1012.7R
BALT KEY BRIDGE  2224          260/ 10/ 11   N/A
COVE POINT       2224          280/  8/ 11   N/A
LEWISETTA        2224          280/ 12/ 15   N/A
SOLOMONS ISLAND  2224          250/ 10/ 15   N/A
PINEY POINT      2224          360/  2/  4   N/A

$$





USA.gov is the U.S. government's official web portal to all federal, state and local government web resources and services.